GSAT-10 (GAGAN/PRN 128)

Last updated on Sun Jul 06 2025 00:03:22 GMT+0000 (Coordinated Universal Time)

1 38779U 12051B 25186.58127410 -.00000149 00000+0 00000+0 0 9996 2 38779 0.0574 267.1004 0008545 191.2807 117.6939 1.00272029 46629
UTC large
Height (km)
Speed (km/s)
/
Latitude / Longitude
Inclination (degrees)
Orbital Period (minutes)
Azimuth
Elevation
Range (km)
Doppler Factor

Next 0 passes for location: London (51.5072 / 0.1276)

Sorry there are no passes over London.